Regional Weather Roundup
Issued by NWS

Home | Current Version | Previous Version | Text Only | Print | Product List | Glossary On
Versions: 1 2 3 4 5 6 7 8 9 10 11 12 13 14 15 16 17 18 19 20 21 22 23 24 25 26 27 28
000
ASUS44 KJAN 202310
RWRMS

MISSISSIPPI HOURLY WEATHER ROUNDUP
NATIONAL WEATHER SERVICE JACKSON MS
500 PM CST MON FEB 20 2017

NOTE: "FAIR: INDICATES FEW OR NO CLOUDS BELOW 12,000 FEET WITH NO
SIGNIFICANT WEATHER AND/OR OBSTRUCTIONS TO VISIBILITY.

MSZ001>002-007>008-010>013-018>021-025>028-034>036-210000-
NORTHWEST MISSISSIPPI

CITY           SKY/WX    TMP DP  RH WIND       PRES   REMARKS
BATESVILLE     FAIR      76  53  44 CALM      29.98S
CLEVELAND      FAIR      76  54  46 SE8       29.94F
GREENWOOD      MOCLDY    79  49  34 S10       29.96S
GREENVILLE     MOCLDY    77  57  50 SE12      29.92F
OLIVE BRANCH   MOCLDY   N/A N/A N/A S5        29.97S
OXFORD         FAIR      73  52  46 SE8       30.00F
TUNICA         CLEAR     73  54  49 SE8       29.97F
WINONA         FAIR      78  52  40 SE8       29.97F
$$

MSZ003>006-009-014>017-022>024-029>033-037>039-210000-
NORTHEAST MISSISSIPPI

CITY           SKY/WX    TMP DP  RH WIND       PRES   REMARKS
COLUMBUS AFB   CLEAR     75  52  43 S9        30.02S
CORINTH        FAIR      75  50  41 CALM      30.02S
GOLDN TRIANGLE CLEAR     75  48  38 SE12      29.99S
TUPELO         CLOUDY    76  48  37 SE5       30.02S
$$

MSZ040-058-210000-
CENTRAL MISSISSIPPI

CITY           SKY/WX    TMP DP  RH WIND       PRES   REMARKS
JACKSON INTL   MOCLDY    77  53  43 SE7       29.97F
JACKSON HAWKNS MOCLDY    77  54  44 SE10      29.96F
MADISON        FAIR     N/A N/A N/A CALM      29.96F
MERIDIAN KEY   CLEAR     80  54  40 E8        30.00F
MERIDIAN NAS   CLOUDY    79  51  37 SE8       30.02S
VICKSBURG VKS  CLEAR     77  61  57 SE6G16    29.90F
$$

MSZ059>079-210000-
SOUTH MISSISSIPPI

CITY           SKY/WX    TMP DP  RH WIND       PRES   REMARKS
BROOKHAVEN     FAIR     N/A N/A N/A SE8       29.97F
COLUMBIA       MOCLDY    75  52  43 SE9G16    30.01F
HATTIESBURG    PTCLDY    76  49  38 SE10      30.02S
LAUREL         MOCLDY    77  53  43 SE7       30.01S
MCCOMB         PTSUNNY   75  61  61 SE9       29.96F
NATCHEZ        CLOUDY    75  63  64 SE12      29.90F
PINE BELT      CLOUDY    77  50  38 S13       30.03S
$$

MSZ080>082-210000-
COASTAL MISSISSIPPI

CITY           SKY/WX    TMP DP  RH WIND       PRES   REMARKS
BAY ST LOUIS   MOCLDY    70  63  78 SE8       30.03S
BILOXI         CLOUDY    70  65  84 SE12      30.03S
PASCAGOULA     MOCLDY    71  62  73 SE9       30.04S
GULFPORT       MOCLDY    71  65  81 SE15      30.03S
$$

LAZ007>009-015>016-023>026-210000-
NORTHEAST LOUISIANA

CITY           SKY/WX    TMP DP  RH WIND       PRES   REMARKS
BASTROP        CLOUDY    76  63  63 E6        29.89F
TALLULAH/VBURG CLOUDY    76  60  57 SE14      29.92F
VIDALIA        MOCLDY    76  64  67 SE12      29.88F
$$




USA.gov is the U.S. government's official web portal to all federal, state and local government web resources and services.